Location: Clanezzo
(45.7500°N, 9.6000°E)
Time: 02:48:00
(UTC+00:00)

ATLAS 5 CENTAUR R/B - Pass Details

Date: 12 May 2021
Orbit: 513 x 1144 km, 63.3° (Epoch: 18 June)

Event Time Altitude Azimuth Distance (km) Brightness Sun altitude
Rises 20:20:23 0° 314° (NW) 3,313 7.3 -14.3°
Reaches altitude 10° 20:22:50 10° 305° (NW) 2,477 6.0 -14.6°
Maximum altitude 20:28:04 35° 242° (WSW) 1,474 3.6 -15.2°
Enters shadow 20:33:28 12° 181° (S) 2,656 4.3 -15.9°
